timestamp,surface_pressure_avg,surface_temp_avg,battery_voltage,lat,long
2018-02-26 00:00:00+00:00,234.3798,0.31,12.81,47.84626,-54.09684
2018-02-26 00:10:00+00:00,228.2698,0.38,12.81,47.84626,-54.09684
2018-02-26 00:20:00+00:00,226.9614,0.4,12.89,47.84626,-54.09684
2018-02-26 00:30:00+00:00,231.0182,0.5,12.89,47.84626,-54.09684
2018-02-26 00:40:00+00:00,229.2631,0.58,12.89,47.84626,-54.09684
2018-02-26 00:50:00+00:00,219.3864,0.55,12.89,47.84626,-54.09684
2018-02-26 01:00:00+00:00,215.1314,0.51,12.81,47.84626,-54.09684
2018-02-26 01:10:00+00:00,220.0098,0.51,12.81,47.84626,-54.09684
2018-02-26 01:20:00+00:00,217.9381,0.57,12.89,47.84626,-54.09684
2018-02-26 01:30:00+00:00,210.4115,0.4,12.89,47.84626,-54.09684
2018-02-26 01:40:00+00:00,209.5765,0.3,12.89,47.84626,-54.09684
2018-02-26 01:50:00+00:00,207.2798,0.2,12.89,47.84626,-54.09684
2018-02-26 02:00:00+00:00,206.7797,0.1,12.81,47.84626,-54.09684
2018-02-26 02:10:00+00:00,208.3731,0.09,12.73,47.84626,-54.09684
2018-02-26 02:20:00+00:00,211.8814,0.0,12.81,47.84626,-54.09684
2018-02-26 02:30:00+00:00,215.1714,0.0,12.81,47.84626,-54.09684
2018-02-26 02:40:00+00:00,217.0098,0.0,12.89,47.84626,-54.09684
2018-02-26 02:50:00+00:00,216.6613,0.0,12.89,47.84626,-54.09684
2018-02-26 03:00:00+00:00,218.8098,-0.07,12.81,47.84626,-54.09684
2018-02-26 03:10:00+00:00,221.2314,-0.1,12.73,47.84626,-54.09684
2018-02-26 03:20:00+00:00,222.1831,-0.1,12.81,47.84626,-54.09684
2018-02-26 03:30:00+00:00,227.3098,-0.1,12.81,47.84626,-54.09684
2018-02-26 03:40:00+00:00,235.0865,-0.1,12.81,47.84626,-54.09684
2018-02-26 03:50:00+00:00,233.3448,-0.12,12.81,47.84626,-54.09684
2018-02-26 04:00:00+00:00,232.3915,-0.14,12.81,47.84626,-54.09684
2018-02-26 04:10:00+00:00,240.8414,-0.14,12.73,47.84626,-54.09684
2018-02-26 04:20:00+00:00,246.9998,-0.14,12.81,47.84626,-54.09684
2018-02-26 04:30:00+00:00,245.2648,-0.2,12.81,47.84626,-54.09684
2018-02-26 04:40:00+00:00,247.1981,-0.2,12.81,47.84626,-54.09684
2018-02-26 04:50:00+00:00,259.5048,-0.2,12.81,47.84626,-54.09684
2018-02-26 05:00:00+00:00,266.2014,-0.2,12.73,47.84626,-54.09684
2018-02-26 05:10:00+00:00,264.7281,-0.2,12.73,47.84626,-54.09684
2018-02-26 05:20:00+00:00,269.5948,-0.2,12.81,47.84626,-54.09684
2018-02-26 05:30:00+00:00,284.7964,-0.2,12.81,47.84626,-54.09684
2018-02-26 05:40:00+00:00,292.0031,-0.2,12.81,47.84626,-54.09684
2018-02-26 05:50:00+00:00,288.8781,-0.2,12.81,47.84626,-54.09684
2018-02-26 06:00:00+00:00,293.1047,-0.2,12.73,47.84626,-54.09684
2018-02-26 06:10:00+00:00,297.5198,-0.1,12.65,47.84626,-54.09684
2018-02-26 06:20:00+00:00,300.6013,-0.19,12.81,47.84626,-54.09684
2018-02-26 06:30:00+00:00,302.6996,-0.2,12.81,47.84626,-54.09684
2018-02-26 06:40:00+00:00,312.5946,-0.12,12.81,47.84626,-54.09684
2018-02-26 06:50:00+00:00,315.4814,-0.1,12.81,47.84626,-54.09684
2018-02-26 07:00:00+00:00,314.5013,-0.2,12.73,47.84626,-54.09684
2018-02-26 07:10:00+00:00,310.9464,-0.2,12.65,47.84626,-54.09684
2018-02-26 07:20:00+00:00,318.743,-0.3,12.73,47.84626,-54.09684
2018-02-26 07:30:00+00:00,326.7963,-0.3,12.73,47.84626,-54.09684
2018-02-26 07:40:00+00:00,333.6062,-0.3,12.81,47.84626,-54.09684
2018-02-26 07:50:00+00:00,326.6846,-0.3,12.81,47.84626,-54.09684
2018-02-26 08:00:00+00:00,330.1379,-0.34,12.73,47.84626,-54.09684
2018-02-26 08:10:00+00:00,333.8496,-0.4,12.65,47.84626,-54.09684
2018-02-26 08:20:00+00:00,336.348,-0.4,12.73,47.84626,-54.09684
2018-02-26 08:30:00+00:00,332.628,-0.4,12.73,47.84626,-54.09684
2018-02-26 08:40:00+00:00,335.0463,-0.4,12.81,47.84626,-54.09684
2018-02-26 08:50:00+00:00,334.373,-0.4,12.81,47.84626,-54.09684
2018-02-26 09:00:00+00:00,334.883,-0.43,12.73,47.84626,-54.09684
2018-02-26 09:10:00+00:00,328.4297,-0.49,12.65,47.84626,-54.09684
2018-02-26 09:20:00+00:00,328.8113,-0.5,12.73,47.84626,-54.09684
2018-02-26 09:30:00+00:00,330.428,-0.5,12.73,47.84626,-54.09684
2018-02-26 09:40:00+00:00,325.5397,-0.5,12.73,47.84626,-54.09684
2018-02-26 09:50:00+00:00,320.0047,-0.5,12.73,47.84626,-54.09684
2018-02-26 10:00:00+00:00,318.1179,-0.5,12.65,47.84626,-54.09684
2018-02-26 10:10:00+00:00,308.7747,-0.5,12.65,47.84626,-54.09684
2018-02-26 10:20:00+00:00,293.2047,-0.5,12.73,47.84626,-54.09684
2018-02-26 10:30:00+00:00,290.313,-0.5,12.73,47.84626,-54.09684
2018-02-26 10:40:00+00:00,289.6064,-0.5,12.81,47.84626,-54.09684
2018-02-26 10:50:00+00:00,281.5031,-0.45,12.97,47.84626,-54.09684
2018-02-26 11:00:00+00:00,267.1698,-0.46,12.97,47.84626,-54.09684
2018-02-26 11:10:00+00:00,260.8598,-0.4,13.37,47.84626,-54.09684
2018-02-26 11:20:00+00:00,258.178,-0.31,13.68,47.84626,-54.09684
2018-02-26 11:30:00+00:00,251.4131,-0.3,13.6,47.84626,-54.09684
2018-02-26 11:40:00+00:00,248.2897,-0.26,13.53,47.84626,-54.09684
2018-02-26 11:50:00+00:00,253.4115,-0.22,13.6,47.84626,-54.09684
2018-02-26 12:00:00+00:00,250.3214,-0.26,13.6,47.84626,-54.09684
2018-02-26 12:10:00+00:00,235.9814,-0.3,13.53,47.84626,-54.09684
2018-02-26 12:20:00+00:00,228.3997,-0.4,13.53,47.84626,-54.09684
2018-02-26 12:30:00+00:00,229.3114,-0.4,14.0,47.84626,-54.09684
2018-02-26 12:40:00+00:00,224.5431,-0.4,13.6,47.84626,-54.09684
2018-02-26 12:50:00+00:00,213.9214,-0.5,13.84,47.84626,-54.09684
2018-02-26 13:00:00+00:00,211.6647,-0.5,13.76,47.84626,-54.09684
2018-02-26 13:10:00+00:00,212.5998,-0.5,13.6,47.84626,-54.09684
2018-02-26 13:20:00+00:00,208.4198,-0.5,13.68,47.84626,-54.09684
2018-02-26 13:30:00+00:00,199.6764,-0.5,13.68,47.84626,-54.09684
2018-02-26 13:40:00+00:00,198.7514,-0.5,13.76,47.84626,-54.09684
2018-02-26 13:50:00+00:00,199.3231,-0.5,14.0,47.84626,-54.09684
2018-02-26 14:00:00+00:00,194.1898,-0.5,13.53,47.84626,-54.09684
2018-02-26 14:10:00+00:00,190.1415,-0.44,13.53,47.84626,-54.09684
2018-02-26 14:20:00+00:00,192.6765,-0.4,14.08,47.84626,-54.09684
2018-02-26 14:30:00+00:00,194.9498,-0.4,13.6,47.84626,-54.09684
2018-02-26 14:40:00+00:00,188.2932,-0.4,13.68,47.84626,-54.09684
2018-02-26 14:50:00+00:00,185.5265,-0.4,14.16,47.84626,-54.09684
2018-02-26 15:00:00+00:00,192.3681,-0.4,13.53,47.84626,-54.09684
2018-02-26 15:10:00+00:00,196.0298,-0.4,13.53,47.84626,-54.09684
2018-02-26 15:20:00+00:00,192.3598,-0.4,13.44,47.84626,-54.09684
2018-02-26 15:30:00+00:00,190.9549,-0.4,13.53,47.84626,-54.09684
2018-02-26 15:40:00+00:00,190.9282,-0.4,13.76,47.84626,-54.09684
2018-02-26 15:50:00+00:00,191.2849,-0.4,13.44,47.84626,-54.09684
2018-02-26 16:00:00+00:00,192.8898,-0.4,13.53,47.84626,-54.09684
2018-02-26 16:10:00+00:00,193.2765,-0.4,13.53,47.84626,-54.09684
2018-02-26 16:20:00+00:00,193.5931,-0.35,13.44,47.84626,-54.09684
2018-02-26 16:30:00+00:00,196.2965,-0.32,13.53,47.84626,-54.09684
2018-02-26 16:40:00+00:00,203.8964,-0.3,13.84,47.84626,-54.09684
2018-02-26 16:50:00+00:00,208.8348,-0.23,13.44,47.84626,-54.09684
2018-02-26 17:00:00+00:00,210.9431,-0.16,13.44,47.84626,-54.09684
2018-02-26 17:10:00+00:00,218.2264,-0.1,13.68,47.84626,-54.09684
2018-02-26 17:20:00+00:00,222.7748,-0.01,14.16,47.84626,-54.09684
2018-02-26 17:30:00+00:00,222.2798,0.1,13.84,47.84626,-54.09684
2018-02-26 17:40:00+00:00,232.6497,0.2,13.6,47.84626,-54.09684
2018-02-26 17:50:00+00:00,245.3297,0.2,13.92,47.84626,-54.09684
2018-02-26 18:00:00+00:00,249.5381,0.2,13.68,47.84626,-54.09684
2018-02-26 18:10:00+00:00,249.7031,0.2,13.6,47.84626,-54.09684
2018-02-26 18:20:00+00:00,258.3581,0.2,13.76,47.84626,-54.09684
2018-02-26 18:30:00+00:00,269.7448,0.2,13.68,47.84626,-54.09684
2018-02-26 18:40:00+00:00,271.5381,0.2,13.6,47.84626,-54.09684
2018-02-26 18:50:00+00:00,273.3364,0.2,13.6,47.84626,-54.09684
2018-02-26 19:00:00+00:00,280.078,0.2,13.44,47.84626,-54.09684
2018-02-26 19:10:00+00:00,285.9348,0.2,13.29,47.84626,-54.09684
2018-02-26 19:20:00+00:00,283.738,0.2,13.29,47.84626,-54.09684
2018-02-26 19:30:00+00:00,285.303,0.26,13.29,47.84626,-54.09684
2018-02-26 19:40:00+00:00,300.7147,0.28,13.29,47.84626,-54.09684
2018-02-26 19:50:00+00:00,307.2363,0.3,13.29,47.84626,-54.09684
2018-02-26 20:00:00+00:00,304.8831,0.3,13.13,47.84626,-54.09684
2018-02-26 20:10:00+00:00,308.0897,0.3,13.05,47.84626,-54.09684
2018-02-26 20:20:00+00:00,317.1297,0.3,13.05,47.84626,-54.09684
2018-02-26 20:30:00+00:00,317.3179,0.32,13.05,47.84626,-54.09684
2018-02-26 20:40:00+00:00,315.5182,0.33,13.05,47.84626,-54.09684
2018-02-26 20:50:00+00:00,316.2047,0.37,13.05,47.84626,-54.09684
2018-02-26 21:00:00+00:00,321.0781,0.38,12.97,47.84626,-54.09684
2018-02-26 21:10:00+00:00,319.168,0.4,12.89,47.84626,-54.09684
2018-02-26 21:20:00+00:00,316.5613,0.4,12.97,47.84626,-54.09684
2018-02-26 21:30:00+00:00,315.038,0.38,12.97,47.84626,-54.09684
2018-02-26 21:40:00+00:00,313.2713,0.4,12.97,47.84626,-54.09684
2018-02-26 21:50:00+00:00,308.9797,0.4,12.97,47.84626,-54.09684
2018-02-26 22:00:00+00:00,303.368,0.41,12.89,47.84626,-54.09684
2018-02-26 22:10:00+00:00,300.238,0.5,12.81,47.84626,-54.09684
2018-02-26 22:20:00+00:00,294.7646,0.6,12.97,47.84626,-54.09684
2018-02-26 22:30:00+00:00,290.6263,0.6,12.97,47.84626,-54.09684
2018-02-26 22:40:00+00:00,283.0814,0.61,12.97,47.84626,-54.09684
2018-02-26 22:50:00+00:00,273.9998,0.6,12.97,47.84626,-54.09684
2018-02-26 23:00:00+00:00,268.3647,0.6,12.89,47.84626,-54.09684
2018-02-26 23:10:00+00:00,266.0497,0.6,12.81,47.84626,-54.09684
2018-02-26 23:20:00+00:00,262.0681,0.6,12.89,47.84626,-54.09684
2018-02-26 23:30:00+00:00,257.273,0.66,12.89,47.84626,-54.09684
2018-02-26 23:40:00+00:00,248.8364,0.7,12.89,47.84626,-54.09684
2018-02-26 23:50:00+00:00,241.7214,0.68,12.97,47.84626,-54.09684
